Weather History for Preston, MN

Change the Weather History Date:

Tuesday, December 3, 2013

  Actual Average (KRST) Record (KRST)
Temperature  
Mean Temperature 34 °F 24 °F  
Max Temperature 35 °F 31 °F 62 °F (2012)
Min Temperature 32 °F 17 °F -30 °F (1940)
Degree Days  
Heating Degree Days 31 41  
Month to date heating degree days 121  
Since 1 July heating degree days 1793  
Cooling Degree Days 0 0  
Month to date cooling degree days 0  
Year to date cooling degree days 585  
Moisture  
Dew Point 34 °F    
Average Humidity 99    
Maximum Humidity 100    
Minimum Humidity 96    
Precipitation  
Precipitation 0.02 in 0.05 in 0.54 in (1990)
Month to date precipitation 0.15  
Year to date precipitation 31.94  
Snow  
Snow 0.00 in 0.40 in 8.00 in (1990)
Month to date snowfall 1.2  
Since 1 July snowfall 8.1  
Snow Depth -    
Sea Level Pressure  
Sea Level Pressure 29.65 in    
Wind  
Wind Speed 8 mph (East)    
Max Wind Speed 13 mph    
Max Gust Speed 17 mph    
Visibility 1 miles    
Events Fog , Rain    
T = Trace of Precipitation, MM = Missing Value Source: NWS Daily Summary

Daily Weather History Graph

Daily Weather History Graph

Search for Another Location

Airport:

Trip Planner

Search our weather history database for the weather conditions in past years. The results will help you decide how hot, cold, wet, or windy it might be!

Date:

Astronomy

Dec. 03, 2013 Rise Set
Actual Time 7:24 AM CST 4:32 PM CST
Civil Twilight 6:52 AM CST 5:04 PM CST
Nautical Twilight 6:16 AM CST 5:40 PM CST
Astronomical Twilight 5:41 AM CST 6:15 PM CST
Moon 7:53 AM CST (12/3) 5:37 PM CST (12/3)
Length of Visible Light 10h 12m
Length of Day
9h 07m
New Moon, 1% of the Moon is Illuminated
Dec 3
New Moon
Dec 9
First Quarter
Dec 17
Full
Dec 25
Last Quarter
Jan 1
New

Hourly Weather History & Observations

Time (CST) Temp. Windchill Dew Point Humidity Pressure Visibility Wind Dir Wind Speed Gust Speed Precip Events Conditions
12:10 AM 34.7 °F 27.5 °F 33.6 °F 96% 29.62 in 2.0 mi SSE 9.2 mph - N/A   Overcast
12:31 AM 34.7 °F 27.5 °F 33.6 °F 96% 29.62 in 1.5 mi SE 9.2 mph - N/A   Overcast
12:50 AM 34.7 °F 26.4 °F 33.8 °F 97% 29.60 in 1.0 mi SE 11.5 mph - N/A   Overcast
1:10 AM 34.3 °F 26.5 °F 33.8 °F 98% 29.60 in 0.8 mi SE 10.4 mph - N/A   Overcast
1:31 AM 34.3 °F 26.5 °F 33.8 °F 98% 29.61 in 0.8 mi SE 10.4 mph - N/A   Overcast
1:50 AM 34.7 °F 28.1 °F 34.0 °F 97% 29.62 in 0.8 mi SE 8.1 mph - N/A   Overcast
2:10 AM 34.2 °F 25.2 °F 33.8 °F 99% 29.60 in 0.5 mi SE 12.7 mph 17.3 mph N/A Fog Fog
2:31 AM 34.2 °F 26.2 °F 33.8 °F 99% 29.61 in 0.5 mi SSE 10.4 mph - N/A Fog Fog
2:50 AM 34.2 °F 26.8 °F 33.8 °F 99% 29.60 in 0.2 mi SE 9.2 mph - N/A Fog Fog
3:10 AM 34.2 °F 26.8 °F 33.8 °F 99% 29.62 in 0.2 mi SSE 9.2 mph - N/A Fog Fog
3:31 AM 34.2 °F 27.5 °F 33.8 °F 99% 29.62 in 0.2 mi SE 8.1 mph - N/A Fog Fog
3:50 AM 34.2 °F 28.2 °F 33.8 °F 99% 29.62 in 0.2 mi SE 6.9 mph - N/A Fog Fog
4:10 AM 34.2 °F 27.5 °F 33.8 °F 99% 29.61 in 0.2 mi SE 8.1 mph - N/A Fog Fog
4:31 AM 34.2 °F 26.8 °F 33.8 °F 99% 29.61 in 0.2 mi SE 9.2 mph - N/A Fog Fog
4:50 AM 34.2 °F 27.5 °F 33.8 °F 99% 29.61 in 0.2 mi SE 8.1 mph - N/A Fog Fog
5:11 AM 34.3 °F 28.4 °F 34.0 °F 99% 29.61 in 0.2 mi SE 6.9 mph - N/A Fog Fog
5:30 AM 34.3 °F 29.2 °F 34.0 °F 99% 29.61 in 0.2 mi ESE 5.8 mph - N/A Fog Fog
5:50 AM 34.7 °F 29.6 °F 34.2 °F 98% 29.60 in 0.2 mi ESE 5.8 mph - N/A Fog Fog
6:11 AM 34.7 °F 29.6 °F 34.2 °F 98% 29.61 in 0.2 mi ESE 5.8 mph - N/A Fog Fog
6:30 AM 34.2 °F 29.0 °F 34.0 °F 99% 29.61 in 0.2 mi ESE 5.8 mph - N/A Fog Fog
6:50 AM 34.2 °F 30.0 °F 34.0 °F 99% 29.62 in 0.2 mi East 4.6 mph - N/A Fog Fog
7:11 AM 34.2 °F 28.2 °F 34.0 °F 99% 29.61 in 0.2 mi ESE 6.9 mph - N/A Fog Fog
7:30 AM 34.0 °F 28.0 °F 33.8 °F 99% 29.61 in 0.2 mi ESE 6.9 mph - N/A Fog Fog
7:50 AM 34.0 °F 29.8 °F 33.8 °F 99% 29.62 in 0.2 mi East 4.6 mph - N/A Fog Fog
8:11 AM 34.2 °F 28.2 °F 34.0 °F 99% 29.62 in 0.2 mi ESE 6.9 mph - N/A Fog Fog
8:30 AM 34.3 °F 28.4 °F 34.2 °F 99% 29.63 in 0.2 mi East 6.9 mph - N/A Fog Fog
8:50 AM 34.3 °F 27.7 °F 34.2 °F 99% 29.63 in 0.2 mi ESE 8.1 mph - N/A Fog Fog
9:11 AM 34.7 °F 27.5 °F 34.3 °F 99% 29.63 in 0.2 mi ESE 9.2 mph - N/A Fog Fog
9:30 AM 34.7 °F 28.1 °F 34.7 °F 100% 29.64 in 0.2 mi ESE 8.1 mph - N/A Fog Fog
9:51 AM 34.9 °F 27.1 °F 34.7 °F 99% 29.64 in 0.2 mi ESE 10.4 mph - N/A Fog Fog
10:10 AM 35.1 °F 30.1 °F 34.9 °F 99% 29.65 in 0.2 mi ENE 5.8 mph - N/A Fog Fog
10:31 AM 35.1 °F 28.6 °F 34.9 °F 99% 29.65 in 0.2 mi East 8.1 mph - N/A Fog Fog
10:50 AM 35.1 °F 30.1 °F 34.9 °F 99% 29.65 in 0.2 mi East 5.8 mph - N/A Fog Fog
11:10 AM 35.1 °F 31.0 °F 34.9 °F 99% 29.66 in 0.2 mi East 4.6 mph - N/A Fog Fog
11:31 AM 35.1 °F 31.0 °F 34.9 °F 99% 29.66 in 0.2 mi ENE 4.6 mph - N/A Fog Fog
11:50 AM 34.9 °F - 34.7 °F 99% 29.67 in 0.2 mi Calm Calm - N/A Fog Fog
12:10 PM 34.9 °F 32.0 °F 34.7 °F 99% 29.67 in 0.2 mi ENE 3.5 mph - N/A Rain Rain
12:31 PM 34.7 °F 31.8 °F 34.7 °F 100% 29.67 in 0.2 mi ENE 3.5 mph - N/A Rain Light Rain
12:50 PM 34.7 °F 28.8 °F 34.7 °F 100% 29.65 in 0.2 mi East 6.9 mph - N/A Rain Light Rain
1:11 PM 34.9 °F 28.3 °F 34.7 °F 99% 29.64 in 0.2 mi ENE 8.1 mph - 0.01 in Rain Light Rain
1:30 PM 35.1 °F 29.3 °F 34.9 °F 99% 29.64 in 0.5 mi NE 6.9 mph - 0.02 in   Light Drizzle
1:51 PM 34.9 °F 28.3 °F 34.7 °F 99% 29.63 in 2.0 mi NE 8.1 mph - 0.02 in   Overcast
2:10 PM 35.1 °F 29.3 °F 34.9 °F 99% 29.63 in 3.0 mi ENE 6.9 mph 16.1 mph N/A   Overcast
2:31 PM 34.7 °F 26.4 °F 34.7 °F 100% 29.61 in 4.0 mi ENE 11.5 mph 16.1 mph N/A   Overcast
2:50 PM 35.1 °F 26.9 °F 34.9 °F 99% 29.62 in 4.0 mi East 11.5 mph - N/A   Overcast
3:11 PM 35.1 °F 27.4 °F 34.9 °F 99% 29.62 in 4.0 mi East 10.4 mph - N/A   Overcast
3:31 PM 35.1 °F 27.9 °F 34.9 °F 99% 29.62 in 4.0 mi East 9.2 mph - N/A   Overcast
3:50 PM 34.9 °F 27.7 °F 34.7 °F 99% 29.63 in 2.0 mi East 9.2 mph - N/A   Overcast
4:11 PM 34.7 °F 28.1 °F 34.7 °F 100% 29.64 in 1.5 mi ENE 8.1 mph - N/A   Overcast
4:30 PM 34.7 °F 28.1 °F 34.7 °F 100% 29.65 in 1.2 mi ENE 8.1 mph - N/A   Overcast
4:50 PM 34.7 °F 28.8 °F 34.7 °F 100% 29.65 in 1.0 mi East 6.9 mph - N/A   Overcast
5:11 PM 34.7 °F 26.9 °F 34.7 °F 100% 29.66 in 0.5 mi East 10.4 mph - N/A Rain Light Rain
5:30 PM 34.7 °F 27.5 °F 34.5 °F 99% 29.67 in 0.5 mi East 9.2 mph - N/A Rain Light Rain
5:50 PM 34.7 °F 28.8 °F 34.3 °F 99% 29.68 in 0.5 mi East 6.9 mph - N/A Fog Fog
6:11 PM 34.3 °F 27.7 °F 34.2 °F 99% 29.68 in 0.5 mi East 8.1 mph - N/A Fog Fog
6:30 PM 34.3 °F 27.7 °F 34.2 °F 99% 29.68 in 0.5 mi East 8.1 mph - N/A Fog Fog
6:50 PM 34.2 °F 28.2 °F 34.0 °F 99% 29.69 in 0.5 mi East 6.9 mph - N/A Fog Fog
7:10 PM 34.2 °F 27.5 °F 34.0 °F 99% 29.68 in 0.5 mi East 8.1 mph - N/A Fog Fog
7:31 PM 34.2 °F 28.2 °F 34.0 °F 99% 29.69 in 0.5 mi East 6.9 mph - N/A Fog Fog
7:50 PM 34.2 °F 30.0 °F 34.0 °F 99% 29.70 in 0.5 mi NE 4.6 mph - N/A Fog Fog
8:10 PM 34.0 °F 29.8 °F 33.8 °F 99% 29.70 in 0.2 mi NE 4.6 mph - N/A Fog Fog
8:30 PM 33.8 °F 28.6 °F 33.8 °F 100% 29.70 in 0.2 mi ENE 5.8 mph - N/A Fog Fog
8:51 PM 33.8 °F 28.6 °F 33.8 °F 100% 29.71 in 0.2 mi NE 5.8 mph - N/A Fog Fog
9:10 PM 33.8 °F 27.7 °F 33.6 °F 99% 29.70 in 0.2 mi ENE 6.9 mph - N/A Fog Fog
9:31 PM 33.8 °F 27.7 °F 33.4 °F 99% 29.69 in 0.5 mi East 6.9 mph - N/A Fog Fog
9:50 PM 33.4 °F 25.9 °F 33.3 °F 99% 29.68 in 0.5 mi East 9.2 mph - N/A Fog Fog
10:11 PM 33.3 °F 26.4 °F 33.1 °F 99% 29.68 in 0.5 mi NE 8.1 mph - N/A Fog Fog
10:30 PM 33.3 °F 25.1 °F 33.1 °F 99% 29.68 in 0.5 mi East 10.4 mph - N/A Fog Fog
10:50 PM 33.1 °F 25.5 °F 32.9 °F 99% 29.69 in 0.5 mi ENE 9.2 mph - N/A Fog Fog
11:11 PM 33.3 °F 27.1 °F 33.1 °F 99% 29.71 in 0.5 mi ENE 6.9 mph - N/A Fog Fog
11:30 PM 33.1 °F 28.7 °F 32.9 °F 99% 29.71 in 0.5 mi ENE 4.6 mph - N/A Fog Fog
11:50 PM 32.9 °F 27.5 °F 32.9 °F 100% 29.72 in 0.5 mi NE 5.8 mph - N/A Fog Fog